Location: *
(58.4167°N, 22.5000°E)
Time: 09:23:05
(UTC+00:00)

SL-16 R/B - Pass Details

Date: 22 September 2019
Orbit: 840 x 849 km, 71.0° (Epoch: 18 October)

Event Time Altitude Azimuth Distance (km) Brightness Sun altitude
Rises 19:14:01 0° 320° (NW) 3,419 6.8 -20.7°
Reaches altitude 10° 19:16:50 10° 309° (NW) 2,481 5.8 -21.0°
Maximum altitude 19:21:24 26° 255° (WSW) 1,630 4.0 -21.4°
Drops below altitude 10° 19:25:57 10° 201° (SSW) 2,472 4.4 -21.9°
Enters shadow 19:26:12 - 200° (SSW) 2,544 4.5 -21.9°
